Location: Namasale
(1.5000°N, 32.6167°E)
Time: 22:31:56
(UTC+00:00)

Vanguard 3 - Pass Details

Date: 22 April 2021
Orbit: 507 x 3262 km, 33.4° (Epoch: 16 May)

Event Time Altitude Azimuth Distance (km) Brightness Sun altitude
Rises 17:16:50 0° 228° (SW) 7,182 12.4 -21.3°
Reaches altitude 10° 17:22:05 10° 225° (SW) 6,012 11.9 -22.6°
Maximum altitude 17:39:43 63° 148° (SSE) 2,500 9.3 -26.8°
Enters shadow 17:44:14 43° 89° (E) 2,601 9.2 -27.9°
